TimeCST,TemperatureF,Dew PointF,Humidity,Sea Level PressureIn,VisibilityMPH,Wind Direction,Wind SpeedMPH,Gust SpeedMPH,PrecipitationIn,Events,Conditions,WindDirDegrees,DateUTC
12:52 AM,-4.0,-8.0,83,30.37,10.0,Calm,Calm,-,N/A,,Clear,0,2014-02-03 06:52:00
1:52 AM,-11.0,-16.1,78,30.38,10.0,Calm,Calm,-,N/A,,Clear,0,2014-02-03 07:52:00
2:52 AM,-11.0,-17.0,75,30.38,10.0,South,3.5,-,N/A,,Clear,180,2014-02-03 08:52:00
3:52 AM,-8.0,-13.0,79,30.38,9.0,Calm,Calm,-,N/A,,Clear,0,2014-02-03 09:52:00
4:52 AM,-8.0,-11.9,83,30.38,8.0,SSE,3.5,-,N/A,,Clear,150,2014-02-03 10:52:00
5:52 AM,-9.9,-15.0,78,30.37,9.0,SSE,3.5,-,N/A,,Clear,150,2014-02-03 11:52:00
6:52 AM,-9.0,-15.0,75,30.38,9.0,SSE,3.5,-,N/A,,Clear,150,2014-02-03 12:52:00
7:52 AM,-4.0,-9.9,76,30.38,7.0,SSE,3.5,-,N/A,,Clear,160,2014-02-03 13:52:00
8:52 AM,-0.0,-6.0,76,30.39,7.0,South,5.8,-,N/A,,Clear,170,2014-02-03 14:52:00
9:52 AM,3.9,-0.9,80,30.42,8.0,South,8.1,-,N/A,,Clear,190,2014-02-03 15:52:00
10:52 AM,10.9,1.0,64,30.41,10.0,South,10.4,-,N/A,,Clear,180,2014-02-03 16:52:00
11:52 AM,14.0,3.0,62,30.38,10.0,South,10.4,-,N/A,,Clear,180,2014-02-03 17:52:00
12:52 PM,17.1,5.0,59,30.35,10.0,South,9.2,-,N/A,,Clear,180,2014-02-03 18:52:00
1:52 PM,19.0,5.0,54,30.35,10.0,South,9.2,-,N/A,,Clear,180,2014-02-03 19:52:00
2:52 PM,19.0,6.1,57,30.34,10.0,SSE,8.1,-,N/A,,Clear,160,2014-02-03 20:52:00
3:52 PM,18.0,6.1,60,30.35,10.0,South,9.2,-,N/A,,Clear,180,2014-02-03 21:52:00
4:52 PM,18.0,5.0,57,30.36,10.0,South,5.8,-,N/A,,Clear,170,2014-02-03 22:52:00
5:52 PM,12.0,3.0,67,30.35,10.0,SSE,4.6,-,N/A,,Clear,160,2014-02-03 23:52:00
6:52 PM,12.9,3.0,65,30.36,10.0,SSE,4.6,-,N/A,,Clear,160,2014-02-04 00:52:00
7:52 PM,12.0,3.0,67,30.35,10.0,SE,4.6,-,N/A,,Clear,140,2014-02-04 01:52:00
8:52 PM,12.9,3.9,67,30.35,10.0,SSE,4.6,-,N/A,,Clear,150,2014-02-04 02:52:00
9:52 PM,12.9,3.9,67,30.37,10.0,SSE,4.6,-,N/A,,Mostly Cloudy,150,2014-02-04 03:52:00
10:52 PM,14.0,3.0,62,30.37,10.0,South,5.8,-,N/A,,Overcast,170,2014-02-04 04:52:00
11:52 PM,12.0,3.0,67,30.38,10.0,SE,3.5,-,N/A,,Overcast,140,2014-02-04 05:52:00